星链-35100(STARLINK-35100)

导读

STARLINK-35100是美国太空探索技术公司SpaceX星链星座的组网卫星,于2025年9月6日发射升空。星链项目旨在构建覆盖全球的低轨卫星互联网星座,为全球偏远地区、海洋等网络覆盖薄弱区域提供高速低延迟的宽带网络服务,该卫星入轨后将进一步扩充星链星座规模,提升星座全球网络服务覆盖能力与容量。

基本信息
目录编号:
65542
目录名称:
STARLINK-35100
国际标识:
2025-200Y
轨道中心:
EARTH
卫星名称:
星链-35100
卫星全名:
星链-35100(STARLINK-35100)
卫星状态:
在轨 (已飞行363 天)
发射日期:
2025-09-06 UTC
国别 :
美国 (US)
星等 :
--
轨道信息
数据来源 国际轨道数据
星历时间: 2026-09-04T00:19:38+0800
15小时前
查看轨道信息
半长轴: 6843.677km
偏心率: 0.0001056
轨道倾角: 97.286°
近地点辐角 106.308°
升交点赤经 313.308°
平近点角 253.828°
近地点: 464.817km
远地点: 466.263km
周期: 93.906分钟
每日圈数: 15.334462
详细信息
固有亮度:
5
最大亮度:
2.5
卫星平台:
Starlink V1.0
覆盖范围:
全球
运营商:
太空探索技术公司
运营商所在国:
美国
制造商(研发单位):
太空探索技术公司
制造商所在国:
美国
使用方式:
暂无
卫星简介
Starlink 计划是 SpaceX 推出的全球卫星互联网项目,通过发射低轨道卫星,为全球尤其是偏远地区提供高速、低延迟的互联网服务。自 2019 年起,Starlink 已部署数千颗卫星,旨在缩小全球数字鸿沟,推动互联网普及。该项目还为军事、航空等行业提供通信支持,带来广泛经济效益。
2D轨道图
3D轨道图
轨道高度分析图
轨道倾角分析图
轨道综合分析图
查看轨道综合分析图
交会数据列表
事件ID 空间交会对象 最接近时刻(TCA) 交会距离 交会风险概率(CRP) 交会风险指数(CRI) 操作
CDM_260901-090605-802006-554222
NESS (58020)
2026-09-01T
09:06:42+0000
1.715 km
极远距离
1.526784E-6 低风险 0.39
CDM_260904-155604-789506-554221
2026-09-04T
15:56:54+0000
2.991 km
极远距离
1.331453E-6 低风险 0.37
CDM_260905-040706-349806-554221
2026-09-05T
04:07:36+0000
2.956 km
极远距离
1.072816E-6 低风险 0.36
CDM_260905-103804-737106-554221
2026-09-05T
10:38:16+0000
2.741 km
极远距离
8.829039E-7 极低风险 0.34